Theta_e
304 305 306 307 308 308 310 310 312 317 320 318 317 320 322 320 319 317 319 324 328 328 328 327 329 334 332 331 331 331 331 332 335 336 341 339 343 344 344 342 339 338 337 336
306 306 306 306 306 307 307 309 310 310 313 313 320 321 319 318 318 317 315 318 323 326 326 326 328 330 337 338 337 336 335 336 336 339 340 339 343 343 343 339 338 337 336 335
305 305 305 304 306 306 306 307 309 310 311 312 313 315 316 316 316 316 315 314 316 322 326 326 326 328 330 332 335 337 339 338 341 341 339 337 341 342 342 339 338 336 333 331
301 305 302 305 305 306 306 307 307 308 309 309 310 310 312 314 315 312 313 314 314 318 325 325 323 323 326 328 328 327 326 330 337 340 340 338 341 342 340 338 337 335 331 329
300 304 304 305 304 304 306 307 308 308 309 309 309 309 309 313 311 312 312 313 316 315 317 323 324 324 324 326 327 327 324 328 330 334 336 338 338 338 338 335 332 330 329 328
300 302 302 305 305 306 305 305 306 307 307 308 308 309 309 308 310 309 309 311 312 313 315 320 321 323 323 322 322 321 322 323 327 328 332 332 333 332 331 331 328 328 324 321
303 304 304 305 305 305 305 305 307 307 306 307 307 307 306 306 306 307 308 307 309 311 314 317 319 322 322 322 321 321 321 320 323 326 328 330 330 328 328 324 325 324 321 317
304 306 303 306 307 306 306 305 306 306 306 306 306 307 306 306 306 306 306 307 308 310 313 316 316 318 321 321 321 322 322 321 320 322 325 327 327 325 321 323 323 322 318 314
305 303 304 306 306 306 306 306 306 305 306 306 305 305 305 305 305 306 306 308 310 308 311 310 313 314 317 320 321 321 322 321 320 321 324 324 323 321 319 319 321 318 316 310
307 306 307 306 306 307 306 306 306 306 306 306 306 306 305 305 305 305 306 307 308 309 311 311 311 311 313 315 320 321 321 321 320 320 322 321 319 319 318 317 317 317 312 308
303 304 305 306 307 306 306 306 306 306 305 305 305 305 305 305 305 305 305 305 306 305 307 307 307 308 308 311 318 322 322 321 319 318 319 319 318 317 317 318 320 320 315 310
301 302 304 305 305 305 305 305 305 305 305 305 305 305 304 304 304 305 305 305 305 305 305 305 305 306 306 310 312 318 321 320 319 318 317 317 316 314 313 314 315 315 314 308
303 304 304 304 304 303 303 302 303 303 303 303 303 303 303 304 303 303 304 305 305 305 304 304 305 306 307 309 313 316 318 320 319 318 316 315 315 314 313 311 310 311 311 308
303 303 302 302 302 302 302 302 302 302 302 302 302 303 303 303 303 303 304 303 303 304 305 306 306 306 306 307 307 309 314 317 320 319 317 315 314 314 314 313 310 306 306 308
302 301 301 300 300 300 300 300 300 300 300 300 300 301 301 302 303 303 303 303 303 304 304 303 303 305 305 305 305 305 307 314 315 317 316 315 313 312 312 312 309 307 304 302
300 300 300 299 299 299 299 298 298 298 298 299 299 299 299 300 300 301 303 303 303 303 304 303 303 304 304 304 304 304 306 308 311 311 313 312 310 310 310 309 308 307 305 303
298 298 298 297 297 296 296 296 296 296 296 296 296 297 298 299 299 299 300 302 303 303 303 303 303 303 303 303 304 306 306 307 308 310 308 310 310 309 309 308 308 305 304 302
296 295 295 295 295 295 295 294 294 294 294 294 294 295 295 296 297 297 298 299 301 303 303 303 303 304 304 304 303 304 305 306 305 306 308 308 306 308 308 307 306 302 301 300
294 293 293 293 293 293 292 292 292 292 292 292 293 293 294 295 296 297 297 297 298 300 303 304 303 303 304 303 304 305 306 305 304 306 308 309 308 306 305 305 303 300 300 299
293 293 292 292 292 292 291 291 291 291 291 292 293 293 296 297 299 299 299 299 299 300 302 303 303 302 302 303 303 304 304 304 303 305 307 307 307 305 303 303 302 299 299 298
292 292 292 292 292 292 292 291 291 291 291 291 292 292 294 294 296 297 297 297 300 301 302 302 302 302 302 302 302 302 303 303 303 304 305 305 306 302 300 300 299 298 298 297
292 292 291 291 292 292 292 292 291 291 290 290 291 291 292 292 293 293 294 294 297 297 297 298 299 301 301 301 301 302 302 302 303 305 304 304 304 300 298 298 297 296 296 297
293 292 292 291 292 292 292 291 291 291 290 290 290 290 290 291 290 291 292 292 293 293 294 294 295 296 296 297 298 298 300 302 304 305 303 302 301 298 297 297 296 295 296 299
292 292 292 292 292 292 291 291 291 291 290 290 290 289 289 289 290 290 291 292 292 293 294 295 296 296 297 298 299 300 301 303 303 302 301 299 297 296 296 297 295 296 300 299
292 292 291 291 291 290 291 291 291 291 291 290 290 290 290 290 289 290 290 291 291 292 293 294 295 296 297 298 299 300 300 300 299 298 297 296 295 296 296 295 297 299 298 297
291 292 291 290 290 290 290 290 290 290 291 290 291 290 290 290 290 290 290 290 291 291 291 292 293 295 296 296 296 296 296 296 295 295 295 295 296 296 296 298 298 297 297 297
290 291 291 290 289 289 289 289 290 289 289 290 290 290 291 291 291 290 290 290 291 291 292 292 292 293 293 293 294 294 294 294 295 295 296 296 296 297 298 298 298 298 298 298
Wind_Speed
4 7 8 8 8 7 3 1 3 6 13 8 9 9 14 19 27 26 27 22 16 15 15 15 11 11 21 26 30 34 39 42 44 46 47 48 50 53 52 49 47 47 48 46
5 11 12 8 15 13 11 9 12 12 14 7 10 11 14 20 23 22 27 25 14 7 8 7 7 11 18 27 29 31 34 38 44 47 48 46 48 49 49 43 43 47 47 49
3 5 5 7 15 15 8 8 11 11 9 7 11 5 4 17 17 25 22 23 25 7 4 2 8 10 13 14 15 18 23 25 32 39 42 43 47 46 46 44 44 44 47 50
4 3 4 8 8 6 14 11 15 14 13 7 5 17 7 6 13 30 30 25 23 19 4 6 7 9 12 11 11 12 19 28 28 34 38 40 44 46 47 46 47 47 50 51
2 3 9 14 10 8 6 8 10 13 12 9 5 7 12 7 4 12 17 20 21 19 15 10 11 11 11 12 11 10 12 23 28 30 34 41 44 48 48 50 51 53 52 48
1 2 5 6 8 4 4 5 8 6 3 3 6 2 4 7 9 5 13 13 25 25 20 13 15 19 17 14 10 9 12 17 25 29 34 41 47 47 49 51 54 52 50 44
9 5 8 7 14 21 6 5 7 4 6 6 3 4 4 10 4 7 9 13 10 18 23 23 10 19 22 21 18 14 14 14 21 30 33 37 42 49 50 50 48 46 44 42
4 6 8 13 1 0 2 11 13 10 10 8 6 7 8 5 8 9 12 18 9 16 18 20 21 9 25 26 22 24 21 19 21 25 34 39 46 48 49 53 51 49 48 47
7 6 3 10 3 10 17 11 10 16 16 14 10 10 9 8 10 14 14 16 15 17 19 13 13 9 10 25 31 29 28 26 26 27 34 41 46 50 51 52 53 51 50 50
2 5 7 17 22 18 23 22 15 19 20 18 18 17 17 14 14 19 18 17 17 19 23 19 14 15 12 17 28 35 35 31 29 32 37 43 47 51 54 54 53 52 51 50
8 8 10 7 10 10 19 19 18 21 12 15 19 22 23 21 19 20 22 22 26 22 22 25 26 22 17 16 16 32 37 35 31 32 36 43 47 51 54 54 56 57 54 53
8 14 14 10 8 12 14 19 17 19 21 21 22 21 23 24 21 20 23 23 26 31 32 28 28 26 21 20 14 23 34 37 34 33 37 43 48 49 51 52 51 50 51 52
14 27 32 23 13 12 17 17 19 21 24 23 22 22 23 27 29 28 26 23 23 25 29 36 34 28 20 14 8 9 28 40 38 38 39 45 50 53 52 48 46 47 47 45
14 14 7 19 17 19 21 24 26 28 29 29 27 25 25 29 31 32 33 34 33 30 29 26 26 27 26 28 22 20 16 35 44 45 45 47 49 53 54 53 48 45 43 39
8 12 13 16 19 20 23 29 32 34 31 35 34 33 33 33 30 32 35 36 37 36 35 37 37 43 38 33 34 30 20 29 45 50 49 49 50 51 53 51 50 47 44 42
14 15 17 18 19 21 22 25 28 31 32 35 36 38 39 38 42 43 33 34 37 39 39 40 42 36 38 35 34 34 24 24 29 42 50 49 51 52 51 52 52 49 51 51
15 17 20 20 20 26 28 30 33 38 39 39 41 39 39 39 40 42 47 43 34 40 44 42 41 42 47 42 35 34 23 22 28 32 42 51 52 53 54 54 53 52 55 54
14 17 19 20 22 26 29 32 35 37 37 38 41 39 41 43 46 48 48 46 47 36 41 42 39 37 35 35 31 32 35 28 26 37 44 49 51 53 54 54 53 52 55 53
19 19 21 21 22 26 31 32 32 34 36 38 40 43 43 47 49 49 44 43 48 47 40 34 36 36 38 39 35 35 35 32 32 33 46 51 55 54 56 55 54 52 55 58
22 20 20 23 25 25 27 27 29 31 32 31 32 33 34 34 32 33 34 39 42 46 39 35 38 42 43 41 41 41 40 42 42 36 48 56 57 58 57 56 55 55 58 61
21 21 21 23 25 23 23 24 27 28 30 29 30 28 26 23 23 25 29 32 34 34 36 39 42 44 45 45 45 46 48 50 45 41 52 57 58 57 56 56 56 56 59 63
21 20 21 23 23 24 25 24 24 25 25 26 27 27 25 22 19 20 22 27 30 30 33 37 41 44 46 46 48 48 47 46 44 49 54 59 60 57 54 56 57 57 61 59
20 19 19 21 21 22 23 23 22 22 23 23 24 24 23 21 21 20 23 19 21 22 24 28 31 34 34 37 40 42 42 45 47 57 58 59 59 57 58 58 59 58 57 57
21 21 17 19 19 21 23 23 22 21 20 20 19 18 18 17 14 16 16 17 16 15 16 17 18 20 23 30 34 37 40 46 54 57 57 56 55 54 55 57 55 56 55 52
20 19 17 17 20 19 20 20 20 21 22 21 20 18 16 12 13 10 9 11 12 12 12 14 16 18 23 28 33 41 48 53 55 56 57 57 56 56 55 54 58 54 49 43
17 16 17 14 16 15 16 18 19 20 21 22 23 22 19 17 16 14 11 7 5 7 10 13 17 23 28 33 39 44 48 50 52 54 54 55 55 53 56 54 49 44 41 39
14 15 17 17 15 15 15 15 16 18 17 17 19 21 22 22 20 20 21 21 18 17 18 19 22 26 30 33 36 39 42 45 47 48 48 50 50 50 47 44 40 38 35 33
Wind_Direction
242 203 242 275 285 286 252 272 234 357 262 149 34 356 360 353 359 12 24 48 96 110 132 146 153 137 177 191 201 205 207 211 216 220 220 219 217 217 217 223 222 218 216 220
284 255 221 246 251 236 249 247 266 267 284 262 96 44 352 353 352 345 9 18 22 88 106 141 170 183 169 187 197 201 208 212 214 218 218 217 216 218 218 220 218 214 213 211
276 27 318 263 235 221 209 207 228 265 239 354 350 341 22 325 333 332 351 358 3 4 176 169 189 209 207 202 214 219 217 220 219 215 218 221 219 215 217 215 215 213 210 206
256 348 268 251 300 229 209 226 224 247 269 261 207 288 256 345 352 330 332 330 340 348 228 208 176 185 202 213 222 239 241 226 226 225 221 220 216 214 213 215 216 216 207 206
191 224 286 295 274 248 221 246 234 240 240 252 174 245 289 164 280 280 309 326 305 312 317 209 206 207 220 223 233 246 236 216 215 221 213 204 204 206 213 203 204 203 206 205
196 228 243 243 312 81 128 289 225 216 357 283 130 162 217 99 209 315 338 314 291 312 294 276 215 208 216 224 233 256 247 225 215 220 223 215 205 201 201 208 199 204 201 200
219 240 269 269 259 289 238 239 6 107 147 105 133 184 288 321 335 271 247 300 310 311 287 286 286 225 217 227 234 254 239 227 216 217 222 221 218 205 205 200 203 204 203 197
188 218 254 287 115 33 246 329 341 355 19 37 17 236 211 244 302 295 277 293 296 282 269 247 276 244 230 237 258 242 240 232 220 216 219 221 215 207 203 206 207 203 198 195
197 215 280 338 34 333 302 286 317 317 324 331 310 304 294 290 283 299 283 286 301 294 296 294 307 29 276 246 238 245 238 234 225 216 214 217 212 206 203 207 209 201 197 197
319 256 287 312 293 299 291 299 309 312 302 298 293 298 285 263 264 283 277 277 294 292 291 299 308 318 316 339 241 233 237 233 223 216 209 211 209 210 209 207 209 206 199 196
267 258 261 269 264 268 290 293 303 297 308 318 320 322 296 281 272 259 263 265 273 284 290 295 297 298 323 321 276 233 228 224 219 215 210 210 211 213 215 220 221 211 209 202
272 287 289 292 327 338 302 301 309 311 302 295 295 291 296 304 308 297 275 257 256 270 277 282 291 298 298 310 299 247 237 225 220 218 213 213 212 208 214 221 222 224 218 208
257 280 277 289 323 359 350 339 328 321 313 309 301 295 295 292 290 289 287 296 261 257 261 269 280 276 275 279 312 278 238 231 221 218 215 213 214 213 210 214 223 226 225 216
315 352 349 354 357 343 334 328 319 310 307 311 312 311 297 280 275 278 278 276 274 272 260 257 264 271 266 261 270 304 271 241 233 225 220 216 217 217 217 217 214 212 220 219
316 354 358 340 333 330 316 310 310 309 311 306 304 302 298 297 300 284 269 265 266 263 261 261 262 263 266 268 273 275 283 246 226 224 221 220 219 217 216 216 216 209 203 206
349 347 339 334 327 321 318 310 304 300 299 295 293 291 289 287 285 278 280 278 263 259 257 251 256 258 262 264 268 271 259 247 245 218 220 218 215 214 215 216 216 213 203 202
1 347 340 338 334 322 316 309 303 298 295 290 287 286 284 281 279 278 274 269 275 272 262 257 259 264 265 269 262 259 247 242 237 234 220 220 219 217 217 216 216 214 208 202
338 329 323 319 315 310 305 302 299 295 291 290 288 283 277 275 272 272 271 270 265 270 261 257 255 256 252 254 254 251 253 247 245 233 228 224 218 219 218 217 215 210 205 198
344 329 322 315 314 311 309 306 304 305 302 297 289 284 281 276 273 271 265 264 261 262 258 256 253 253 252 251 249 244 243 247 253 237 227 225 223 219 215 215 213 207 206 195
341 336 330 325 320 325 322 319 317 317 316 313 310 301 297 280 273 272 269 263 259 258 262 259 255 256 256 254 253 254 254 255 258 237 222 216 221 216 211 212 210 204 201 193
345 345 339 331 327 336 341 336 331 325 324 323 322 316 311 294 279 272 267 264 261 258 258 260 258 256 257 257 256 254 250 250 248 229 219 209 214 209 203 202 200 199 196 189
346 347 345 340 338 339 342 341 337 334 335 333 329 326 322 314 304 290 277 270 271 268 265 262 260 258 256 254 252 249 245 243 235 219 211 209 210 201 195 194 193 189 188 189
344 349 354 349 348 346 350 350 347 347 347 349 346 335 323 315 314 305 296 290 284 279 272 264 260 255 250 244 240 237 235 230 218 211 204 203 200 194 192 191 189 183 187 186
347 351 346 345 348 356 356 354 355 358 359 359 1 355 348 336 322 317 311 309 303 292 281 272 260 249 239 231 226 224 222 218 203 197 196 190 185 183 183 185 180 182 182 183
346 346 347 344 349 354 359 354 358 4 11 13 11 12 13 19 19 2 322 310 303 296 283 272 266 246 225 217 211 203 193 188 186 182 178 176 174 178 180 180 180 180 173 173
344 346 348 344 353 357 2 5 7 7 8 14 21 23 25 33 42 52 59 69 99 138 148 162 178 184 176 174 172 169 170 169 166 166 167 169 172 173 175 177 167 163 168 171
348 348 343 345 356 1 0 1 5 10 14 20 25 26 29 33 48 59 66 74 89 105 117 126 137 144 146 150 152 154 155 157 162 164 167 167 171 172 161 154 158 165 170 175